www.pogodaiklimat.ru

Погода и климат >> Архив погоды >> Гана >> Sefwi Bekwai


ПОГОДА в Sefwi Bekwai

  • Прогноз погоды в Sefwi Bekwai
  • Монитор погоды в Sefwi Bekwai
  • Климат города

АРХИВ ПОГОДЫ в Sefwi Bekwai

Время (UTC), дата Ветер
(напр.,м/с)
 
Видим.   Явления Облачность Т
(С)
Тd
(С)
f
(%)
Тe
(С)
Тes
(С)
Комфортность P
(гПа)
Po
(гПа)
Тmin
(С)
Tmax
(С)
R
(мм)
R24
(мм)
S
(см)
09 10.12 штиль 0 8000 м дымка 5/5 330 м
[Cu Sc]
+26.0 +24.6 92 +37 +42 очень
душно
1015.3 1015.0
12 10.12 ЮЗ 1 14 км 6/6 450 м
[Cu med, cong]
+31.5 +24.8 68 +45 +53 опасность
перегрева
1013.6 1014.0
15 10.12 ЮВ 2 14 км 5/5 480 м
[Cu med, cong]
+33.0 +22.8 55 +43 +48 опасность
перегрева
1010.8 1011.0
18 10.12 штиль 0 12 км 4/0
[Ci sp]
+30.5 +24.5 70 +43 +43 опасность
перегрева
1012.4 1012.0 +33.0
21 10.12 штиль 0 12 км 3/0
[]
+28.1 +24.2 79 +39 +39 очень
душно
1014.7 1015.0
06 11.12 штиль 0 10 км 8/3 330 м
[Sc Ac trans]
+25.2 +23.8 92 +34 +34 очень
душно
1013.3 1013.0 +24.3
09 11.12 СЗ 1 12 км 6/6 360 м
[Cu Sc]
+27.5 +24.8 85 +39 +43 очень
душно
1015.5 1016.0
12 11.12 ЮВ 2 12 км 6/6 480 м
[Cu med, cong]
+32.5 +23.7 60 +44 +51 опасность
перегрева
1013.2 1013.0
15 11.12 СВ 2 12 км 4/4 480 м
[Cu med, cong]
+32.8 +23.2 57 +43 +48 опасность
перегрева
1010.7 1011.0
18 11.12 штиль 0 12 км 3/0
[Ci sp]
+30.5 +24.7 71 +43 +43 опасность
перегрева
1011.7 1012.0 +33.0
21 11.12 штиль 0 11 км ясно +27.5 +24.8 85 +39 +39 очень
душно
1014.2 1014.0
00 12.12 ЮЗ 1 11 км 4/0
[Ci sp]
+26.5 +24.5 89 +37 +37 очень
душно
1014.7 1015.0
03 12.12 штиль 0 10 км 3/0
[Ci sp]
+26.0 +24.5 91 +36 +36 очень
душно
1012.6 1013.0
06 12.12 штиль 0 10 км 8/8 330 м
[Sc Ci sp]
+25.1 +23.9 93 +34 +34 очень
душно
1012.8 1013.0 +24.8
09 12.12 ЮВ 1 12 км 9/4 330 м
[Cu Sc Ac lent]
+27.2 +25.2 89 +39 +41 очень
душно
1014.9 1015.0
12 12.12 В 4 14 км 9/6 480 м
[Cu med, cong Ac trans]
+31.0 +24.6 69 +44 +46 опасность
перегрева
1013.2 1013.0
15 12.12 ЮВ 2 14 км 4/4 480 м
[Cu med, cong]
+32.1 +23.3 60 +43 +49 опасность
перегрева
1010.6 1011.0
18 12.12 штиль 0 12 км 9/0
[Cs]
+30.0 +25.1 75 +43 +43 опасность
перегрева
1011.5 1012.0 +32.3
21 12.12 штиль 0 12 км 6/0
[Cs]
+26.2 +24.2 89 +36 +36 очень
душно
1015.2 1015.0
03 13.12 штиль 0 12 км 6/3 330 м
[Sc Ci sp]
+25.0 +23.4 91 +34 +34 очень
душно
1010.4 1010.0
06 13.12 штиль 0 12 км 3/3 330 м
[Sc]
+24.2 +23.0 93 +32 +32 очень
душно
1013.9 1014.0 +23.9
09 13.12 ЮЗ 1 13 км 5/3 450 м
[Cu hum Ac trans]
+27.0 +24.3 85 +38 +43 очень
душно
1015.3 1015.0
12 13.12 ЮВ 2 14 км 5/4 450 м
[Cu med, cong Ac trans]
+31.5 +23.5 63 +43 +52 опасность
перегрева
1013.3 1013.0
15 13.12 ЮЗ 1 15 км 5/5 480 м
[Cu med, cong]
+33.0 +24.3 60 +45 +50 опасность
перегрева
1010.6 1011.0
18 13.12 штиль 0 13 км ясно +31.5 +24.8 68 +45 +45 опасность
перегрева
1012.1 1012.0 +33.2
21 13.12 штиль 0 12 км ясно +29.5 +24.4 74 +41 +41 опасность
перегрева
1014.2 1014.0
00 14.12 штиль 0 12 км 8/8 330 м
[Sc]
+27.5 +25.1 87 +40 +40 очень
душно
1015.0 1015.0
03 14.12 штиль 0 12 км 3/0
[Ac trans]
+26.5 +24.9 91 +38 +38 очень
душно
1013.0 1013.0
06 14.12 штиль 0 10 км 9/5 330 м
[Sc Ac trans Cs]
+25.1 +23.9 93 +34 +34 очень
душно
1013.9 1014.0 +24.6
09 14.12 ЮВ 1 14 км 9/9 360 м
[Cu Sc]
+28.3 +25.4 84 +41 +42 опасность
перегрева
1015.1 1015.0
12 14.12 14 км н/о +32.2 +23.8 61 +44 +51 опасность
перегрева
1013.5 1014.0
15 14.12 ЮВ 2 14 км 4/4 480 м
[Cu med, cong]
+33.2 +23.2 56 +44 +49 опасность
перегрева
1010.9 1011.0
18 14.12 штиль 0 14 км 4/1 420 м
[Cu med, cong Ci sp]
+31.0 +23.1 63 +41 +41 опасность
перегрева
1012.0 1012.0 +33.7
21 14.12 ЮЗ 1 12 км ясно +26.0 +24.2 90 +36 +36 очень
душно
1014.6 1015.0
00 15.12 ЮЗ 1 10 км 5/1 330 м
[Sc Ci sp]
+27.0 +24.6 87 +38 +38 очень
душно
1015.1 1015.0
06 15.12 штиль 0 10 км 5/4 330 м
[Sc Ac trans Ci sp]
+25.5 +23.9 91 +35 +35 очень
душно
1014.9 1015.0 +25.0
09 15.12 штиль 0 12 км 8/6 330 м
[Cu Sc Ac trans Ci sp]
+28.0 +25.3 85 +41 +44 опасность
перегрева
1016.7 1017.0
12 15.12 С 1 13 км 5/5 480 м
[Cu med, cong]
+31.5 +23.4 62 +42 +52 опасность
перегрева
1014.3 1014.0
15 15.12 В 1 14 км 3/3 480 м
[Cu med, cong]
+34.0 +21.6 48 +42 +49 опасность
перегрева
1011.3 1011.0
21 15.12 штиль 0 13 км ясно +28.0 +23.2 75 +38 +38 очень
душно
1014.8 1015.0
06 16.12 штиль 0 13 км 9/9 330 м
[Sc]
+25.4 +23.5 89 +34 +34 очень
душно
1013.9 1014.0 +25.0
12 16.12 ЮЗ 2 14 км 6/6 480 м
[Cu med, cong]
+33.3 +24.2 59 +45 +53 опасность
перегрева
1013.2 1013.0
15 16.12 ЮЗ 1 15 км 5/5 480 м
[Cu med, cong]
+36.0 +23.5 49 +47 +52 опасность
перегрева
1010.8 1011.0
18 16.12 ЮЗ 1 14 км 5/0
[Ci sp]
+31.6 +24.8 67 +45 +45 опасность
перегрева
1012.1 1012.0 +34.0
21 16.12 штиль 0 13 км 3/0
[Ci sp]
+27.7 +24.0 80 +38 +38 очень
душно
1014.3 1014.0
03 17.12 штиль 0 12 км 9/9 330 м
[Sc]
+27.0 +25.1 89 +39 +39 очень
душно
1013.1 1013.0

 

Местоположение метеостанции Sefwi Bekwai (Гана): широта 6.20 долгота -2.33 высота над уровнем моря 172 м.

В архиве по умолчанию представлена погода в Sefwi Bekwai за последнюю неделю. Архивные данные за месяц целиком и за предыдущие месяцы, начиная с января 2011 года, Вы можете получить, выбрав интересующий диапазон дат из раскрывающегося списка и нажав кнопку "Ввод!".


*Определитесь, кто Вы:
робот инопланетянин человек

Внимание! Время в таблицах - всемирное. Для получения местного времени необходимо прибавить поправку, которая в Sefwi Bekwai равна 1 ч.

Смотрите также архив погоды в соседних городах и на ближайших метеорологических станциях:

Погода в Kumasi (Гана) (99 км)
Погода в Sunyani (Гана) (126 км)
Погода в Adiake (Кот-д'Ивуар) (147 км)
Погода в Axim (Гана) (148 км)
Погода в Akim Oda (Гана) (152 км)
Погода в Takoradi (Гана) (159 км)
Погода в Wenchi (Гана) (174 км)
Погода в Saltpond (Гана) (178 км)
Погода в Abetifi (Гана) (182 км)
Погода в Abidjan (Кот-д'Ивуар) (206 км)

Пояснения к столбцам:

Ветер - указаны скорость ветра в м/с - средняя за 10 мин, порывы в срок и между сроками (в фигурных скобках) и направление, откуда дует ветер: С - северный, СВ - северо-восточный, В - восточный, ЮВ - юго-восточный, Ю - южный, ЮЗ - юго-западный, З - западный, СЗ - северо-западный.
Видимость - горизонтальная дальность видимости в метрах или километрах. При видимости от 1 до 10 км при отсутствии осадков обычно наблюдается дымка, при ухудшении видимости до 1 км и менее - туман. В сухую погоду видимость может ухудшаться дымом, пылью или мглою.
Явления - указаны атмосферные явления, наблюдавшиеся в срок или в последний час перед сроком; фигурными скобками обозначены явления, наблюдавшиеся между сроками (за 1-3 часа до срока); квадратными скобками обозначены град или гололедные отложения с указанием их диаметра в мм.
Облачность - указаны через наклонную черту общая и нижняя облачность в баллах и высота нижней границы облаков в метрах; квадратными скобками обозначены формы облаков: Ci - перистые, Cs - перисто-слоистые, Cc - перисто-кучевые, Ac - высококучевые, As - высокослоистые, Sc - слоисто-кучевые, Ns - слоисто-дождевые, Cu - кучевые, Cb - кучево-дождевые. Подробнее классификацию облаков см. в Атласе облаков (PDF).
T - Температура воздуха - температура, измеренная на высоте 2 м над землей.
Td - Температура точки росы - температура, при понижении до которой содержащийся в воздухе водяной пар достигнет насыщения.
f - Относительная влажность воздуха - влажноcть воздуха, измеренная на высоте 2 м над землей.
Te - Эффективная температура - температура, которую ощущает одетый по сезону человек в тени. Характеристика душности погоды. При расчете учитывается влияние влажности воздуха и скорости ветра на теплоощущения человека.
Tes - Эффективная температура на солнце - температура, которую ощущает человек, с поправкой на солнечный нагрев. Характеристика знойности погоды. Зависит от высоты солнца над горизонтом, облачности и скорости ветра. Ночью, в пасмурную погоду, а также при ветре 12 м/с и более поправка равна нулю.
P - Атмосферное давление - приведенное к уровню моря атмосферное давление.
Po - Атмосферное давление - измеренное на уровне метеостанции атмосферное давление.
Tmin - Минимальная температура - минимум температуры воздуха на высоте 2 м над землей.
Tmax - Максимальная температура - максимум температуры воздуха на высоте 2 м над землей.
R - Количество осадков - Количество выпавших осадков за период времени, мм. При наведении курсора мыши на число - период времени, за который выпало указанное количество осадков.
R24 - Количество осадков - Количество выпавших осадков за 24 часа, мм.
S - Снежный покров - Высота снежного покрова, см. При наведении курсора мыши на число - состояние снежного покрова и степень покрытия местности в баллах.